Time,TemperatureF,DewpointF,PressureIn,WindDirection,WindDirectionDegrees,WindSpeedMPH,WindSpeedGustMPH,Humidity,HourlyPrecipIn,Conditions,Clouds,dailyrainin,SolarRadiationWatts/m^2,SoftwareType,DateUTC
2013-02-11 00:01:00,41.0,40.0,-100.00,North,0,1.0,3.0,96,0.01,,,0.01,0.000000,,2013-02-11 08:01:00,
2013-02-11 00:11:00,41.0,40.0,-100.00,North,0,1.0,3.0,96,0.01,,,0.01,0.000000,,2013-02-11 08:11:00,
2013-02-11 00:21:00,41.0,40.0,-100.00,North,0,1.0,3.0,96,0.01,,,0.01,0.000000,,2013-02-11 08:21:00,
2013-02-11 00:31:00,41.0,40.0,-100.00,North,0,1.0,3.0,96,0.01,,,0.01,0.000000,,2013-02-11 08:31:00,
2013-02-11 00:52:00,40.0,39.0,-100.00,East,85,2.0,4.0,96,0.01,,,0.02,0.000000,,2013-02-11 08:52:00,
2013-02-11 01:01:00,40.0,39.0,-100.00,East,85,2.0,4.0,96,0.01,,,0.02,0.000000,,2013-02-11 09:01:00,
2013-02-11 01:12:00,40.0,39.0,-100.00,East,85,2.0,4.0,96,0.01,,,0.02,0.000000,,2013-02-11 09:12:00,
2013-02-11 01:21:00,40.0,39.0,-100.00,East,85,2.0,4.0,96,0.01,,,0.02,0.000000,,2013-02-11 09:21:00,
2013-02-11 01:31:00,40.0,39.0,-100.00,East,85,2.0,4.0,96,0.01,,,0.02,0.000000,,2013-02-11 09:31:00,
2013-02-11 01:52:00,41.0,40.0,-100.00,East,100,0.0,6.0,95,0.00,,,0.02,0.000000,,2013-02-11 09:52:00,
2013-02-11 02:01:00,41.0,40.0,-100.00,East,100,0.0,6.0,95,0.00,,,0.02,0.000000,,2013-02-11 10:01:00,
2013-02-11 02:11:00,41.0,40.0,-100.00,East,100,0.0,6.0,95,0.00,,,0.02,0.000000,,2013-02-11 10:11:00,
2013-02-11 02:21:00,41.0,40.0,-100.00,East,100,0.0,6.0,95,0.00,,,0.02,0.000000,,2013-02-11 10:21:00,
2013-02-11 02:31:00,41.0,40.0,-100.00,East,100,0.0,6.0,95,0.00,,,0.02,0.000000,,2013-02-11 10:31:00,
2013-02-11 02:52:00,40.0,39.0,-100.00,East,96,0.0,3.0,96,0.00,,,0.02,0.000000,,2013-02-11 10:52:00,
2013-02-11 03:01:00,40.0,39.0,-100.00,East,96,0.0,3.0,96,0.00,,,0.02,0.000000,,2013-02-11 11:01:00,
2013-02-11 03:11:00,40.0,39.0,-100.00,East,96,0.0,3.0,96,0.00,,,0.02,0.000000,,2013-02-11 11:11:00,
2013-02-11 03:22:00,40.0,39.0,-100.00,East,96,0.0,3.0,96,0.00,,,0.02,0.000000,,2013-02-11 11:22:00,
2013-02-11 03:32:00,40.0,39.0,-100.00,East,96,0.0,3.0,96,0.00,,,0.02,0.000000,,2013-02-11 11:32:00,
2013-02-11 03:52:00,40.0,39.0,-100.00,East,94,0.0,2.0,96,0.00,,,0.02,0.000000,,2013-02-11 11:52:00,
2013-02-11 04:03:00,40.0,39.0,-100.00,East,94,0.0,2.0,96,0.00,,,0.02,0.000000,,2013-02-11 12:03:00,
2013-02-11 04:12:00,40.0,39.0,-100.00,East,94,0.0,2.0,96,0.00,,,0.02,0.000000,,2013-02-11 12:12:00,
2013-02-11 04:22:00,40.0,39.0,-100.00,East,94,0.0,2.0,96,0.00,,,0.02,0.000000,,2013-02-11 12:22:00,
2013-02-11 04:31:00,40.0,39.0,-100.00,East,94,0.0,2.0,96,0.00,,,0.02,0.000000,,2013-02-11 12:31:00,
2013-02-11 04:52:00,40.0,39.0,-100.00,ESE,112,1.0,4.0,96,0.00,,,-99.99,0.000000,,2013-02-11 12:52:00,
2013-02-11 05:01:00,40.0,39.0,-100.00,ESE,112,1.0,4.0,96,0.00,,,-99.99,0.000000,,2013-02-11 13:01:00,
2013-02-11 05:11:00,40.0,39.0,-100.00,ESE,112,1.0,4.0,96,0.00,,,-99.99,0.000000,,2013-02-11 13:11:00,
2013-02-11 05:21:00,40.0,39.0,-100.00,ESE,112,1.0,4.0,96,0.00,,,-99.99,0.000000,,2013-02-11 13:21:00,
2013-02-11 05:32:00,40.0,39.0,-100.00,ESE,112,1.0,4.0,96,0.00,,,-99.99,0.000000,,2013-02-11 13:32:00,
2013-02-11 05:52:00,40.0,39.0,-100.00,NNW,344,0.0,3.0,96,0.01,,,-99.99,0.000000,,2013-02-11 13:52:00,
2013-02-11 06:01:00,40.0,39.0,-100.00,NNW,344,0.0,3.0,96,0.01,,,-99.99,0.000000,,2013-02-11 14:01:00,
2013-02-11 06:11:00,40.0,39.0,-100.00,NNW,344,0.0,3.0,96,0.01,,,-99.99,0.000000,,2013-02-11 14:11:00,
2013-02-11 06:21:00,40.0,39.0,-100.00,NNW,344,0.0,3.0,96,0.01,,,-99.99,0.000000,,2013-02-11 14:21:00,
2013-02-11 06:32:00,40.0,39.0,-100.00,NNW,344,0.0,3.0,96,0.01,,,-99.99,0.000000,,2013-02-11 14:32:00,
2013-02-11 06:53:00,40.0,39.0,-100.00,SSE,153,0.0,2.0,97,0.01,,,0.04,0.000000,,2013-02-11 14:53:00,
2013-02-11 07:01:00,40.0,39.0,-100.00,SSE,153,0.0,2.0,97,0.01,,,0.04,0.000000,,2013-02-11 15:01:00,
2013-02-11 07:11:00,40.0,39.0,-100.00,SSE,153,0.0,2.0,97,0.01,,,0.04,0.000000,,2013-02-11 15:11:00,
2013-02-11 07:22:00,40.0,39.0,-100.00,SSE,153,0.0,2.0,97,0.01,,,0.04,0.000000,,2013-02-11 15:22:00,
2013-02-11 07:31:00,40.0,39.0,-100.00,SSE,153,0.0,2.0,97,0.01,,,0.04,0.000000,,2013-02-11 15:31:00,
2013-02-11 07:52:00,40.0,39.0,-100.00,ESE,115,0.0,3.0,97,0.01,,,0.05,1.000000,,2013-02-11 15:52:00,
2013-02-11 08:01:00,40.0,39.0,-100.00,ESE,115,0.0,3.0,97,0.01,,,0.05,1.000000,,2013-02-11 16:01:00,
2013-02-11 08:11:00,40.0,39.0,-100.00,ESE,115,0.0,3.0,97,0.01,,,0.05,1.000000,,2013-02-11 16:11:00,
2013-02-11 08:21:00,40.0,39.0,-100.00,ESE,115,0.0,3.0,97,0.01,,,0.05,1.000000,,2013-02-11 16:21:00,
2013-02-11 08:31:00,40.0,39.0,-100.00,ESE,115,0.0,3.0,97,0.01,,,0.05,1.000000,,2013-02-11 16:31:00,
2013-02-11 08:52:00,41.0,40.0,-100.00,ESE,112,0.0,3.0,97,0.01,,,0.06,11.000000,,2013-02-11 16:52:00,
2013-02-11 09:01:00,41.0,40.0,-100.00,ESE,112,0.0,3.0,97,0.01,,,0.06,11.000000,,2013-02-11 17:01:00,
2013-02-11 09:11:00,41.0,40.0,-100.00,ESE,112,0.0,3.0,97,0.01,,,0.06,11.000000,,2013-02-11 17:11:00,
2013-02-11 09:21:00,41.0,40.0,-100.00,ESE,112,0.0,3.0,97,0.01,,,0.06,11.000000,,2013-02-11 17:21:00,
2013-02-11 09:31:00,41.0,40.0,-100.00,ESE,112,0.0,3.0,97,0.01,,,0.06,11.000000,,2013-02-11 17:31:00,
2013-02-11 09:53:00,42.0,41.0,-100.00,East,91,0.0,3.0,97,0.02,,,-99.99,42.000000,,2013-02-11 17:53:00,
2013-02-11 10:01:00,42.0,41.0,-100.00,East,91,0.0,3.0,97,0.02,,,-99.99,42.000000,,2013-02-11 18:01:00,
2013-02-11 10:11:00,42.0,41.0,-100.00,East,91,0.0,3.0,97,0.02,,,-99.99,42.000000,,2013-02-11 18:11:00,
2013-02-11 10:21:00,42.0,41.0,-100.00,East,91,0.0,3.0,97,0.02,,,-99.99,42.000000,,2013-02-11 18:21:00,
2013-02-11 10:31:00,42.0,41.0,-100.00,East,91,0.0,3.0,97,0.02,,,-99.99,42.000000,,2013-02-11 18:31:00,
2013-02-11 10:53:00,45.0,44.0,-100.00,South,181,2.0,4.0,95,0.02,,,0.10,127.000000,,2013-02-11 18:53:00,
2013-02-11 11:01:00,45.0,44.0,-100.00,South,181,2.0,4.0,95,0.02,,,0.10,127.000000,,2013-02-11 19:01:00,
2013-02-11 11:11:00,45.0,44.0,-100.00,South,181,2.0,4.0,95,0.02,,,0.10,127.000000,,2013-02-11 19:11:00,
2013-02-11 11:21:00,45.0,44.0,-100.00,South,181,2.0,4.0,95,0.02,,,0.10,127.000000,,2013-02-11 19:21:00,
2013-02-11 11:31:00,45.0,44.0,-100.00,South,181,2.0,4.0,95,0.02,,,0.10,127.000000,,2013-02-11 19:31:00,
2013-02-11 12:01:00,46.0,44.0,-100.00,South,188,1.0,6.0,91,0.00,,,0.10,159.000000,,2013-02-11 20:01:00,
2013-02-11 12:11:00,46.0,44.0,-100.00,South,188,1.0,6.0,91,0.00,,,0.10,159.000000,,2013-02-11 20:11:00,
2013-02-11 12:21:00,46.0,44.0,-100.00,South,188,1.0,6.0,91,0.00,,,0.10,159.000000,,2013-02-11 20:21:00,
2013-02-11 12:31:00,46.0,44.0,-100.00,South,188,1.0,6.0,91,0.00,,,0.10,159.000000,,2013-02-11 20:31:00,
2013-02-11 12:52:00,47.0,45.0,-100.00,SSW,194,2.0,5.0,92,0.00,,,0.10,164.000000,,2013-02-11 20:52:00,
2013-02-11 13:02:00,47.0,45.0,-100.00,SSW,194,2.0,5.0,92,0.00,,,0.10,164.000000,,2013-02-11 21:02:00,
2013-02-11 13:11:00,47.0,45.0,-100.00,SSW,194,2.0,5.0,92,0.00,,,0.10,164.000000,,2013-02-11 21:11:00,
2013-02-11 13:21:00,47.0,45.0,-100.00,SSW,194,2.0,5.0,92,0.00,,,0.10,164.000000,,2013-02-11 21:21:00,
2013-02-11 13:31:00,47.0,45.0,-100.00,SSW,194,2.0,5.0,92,0.00,,,0.10,164.000000,,2013-02-11 21:31:00,
2013-02-11 13:52:00,49.0,46.0,-100.00,SSW,202,1.0,5.0,89,0.00,,,0.10,225.000000,,2013-02-11 21:52:00,
2013-02-11 14:01:00,49.0,46.0,-100.00,SSW,202,1.0,5.0,89,0.00,,,0.10,225.000000,,2013-02-11 22:01:00,
2013-02-11 14:11:00,49.0,46.0,-100.00,SSW,202,1.0,5.0,89,0.00,,,0.10,225.000000,,2013-02-11 22:11:00,
2013-02-11 14:21:00,49.0,46.0,-100.00,SSW,202,1.0,5.0,89,0.00,,,0.10,225.000000,,2013-02-11 22:21:00,
2013-02-11 14:31:00,49.0,46.0,-100.00,SSW,202,1.0,5.0,89,0.00,,,0.10,225.000000,,2013-02-11 22:31:00,
2013-02-11 14:52:00,47.0,45.0,-100.00,West,263,2.0,7.0,92,0.00,,,0.10,115.000000,,2013-02-11 22:52:00,
2013-02-11 15:01:00,47.0,45.0,-100.00,West,263,2.0,7.0,92,0.00,,,0.10,115.000000,,2013-02-11 23:01:00,
2013-02-11 15:11:00,47.0,45.0,-100.00,West,263,2.0,7.0,92,0.00,,,0.10,115.000000,,2013-02-11 23:11:00,
2013-02-11 15:21:00,47.0,45.0,-100.00,West,263,2.0,7.0,92,0.00,,,0.10,115.000000,,2013-02-11 23:21:00,
2013-02-11 15:31:00,47.0,45.0,-100.00,West,263,2.0,7.0,92,0.00,,,0.10,115.000000,,2013-02-11 23:31:00,
2013-02-11 15:52:00,47.0,44.0,-100.00,WSW,237,1.0,6.0,90,0.00,,,0.10,82.000000,,2013-02-11 23:52:00,
2013-02-11 16:01:00,47.0,44.0,-100.00,WSW,237,1.0,6.0,90,0.00,,,0.10,82.000000,,2013-02-12 00:01:00,
2013-02-11 16:11:00,47.0,44.0,-100.00,WSW,237,1.0,6.0,90,0.00,,,0.10,82.000000,,2013-02-12 00:11:00,
2013-02-11 16:21:00,47.0,44.0,-100.00,WSW,237,1.0,6.0,90,0.00,,,0.10,82.000000,,2013-02-12 00:21:00,
2013-02-11 16:31:00,47.0,44.0,-100.00,WSW,237,1.0,6.0,90,0.00,,,0.10,82.000000,,2013-02-12 00:31:00,
2013-02-11 16:52:00,46.0,44.0,-100.00,SSW,207,0.0,5.0,93,0.00,,,0.10,35.000000,,2013-02-12 00:52:00,
2013-02-11 17:01:00,46.0,44.0,-100.00,SSW,207,0.0,5.0,93,0.00,,,0.10,35.000000,,2013-02-12 01:01:00,
2013-02-11 17:11:00,46.0,44.0,-100.00,SSW,207,0.0,5.0,93,0.00,,,0.10,35.000000,,2013-02-12 01:11:00,
2013-02-11 17:21:00,46.0,44.0,-100.00,SSW,207,0.0,5.0,93,0.00,,,0.10,35.000000,,2013-02-12 01:21:00,
2013-02-11 17:31:00,46.0,44.0,-100.00,SSW,207,0.0,5.0,93,0.00,,,0.10,35.000000,,2013-02-12 01:31:00,
2013-02-11 17:52:00,45.0,44.0,-100.00,SSW,193,0.0,3.0,96,0.00,,,0.10,12.000000,,2013-02-12 01:52:00,
2013-02-11 18:01:00,45.0,44.0,-100.00,SSW,193,0.0,3.0,96,0.00,,,0.10,12.000000,,2013-02-12 02:01:00,
2013-02-11 18:11:00,45.0,44.0,-100.00,SSW,193,0.0,3.0,96,0.00,,,0.10,12.000000,,2013-02-12 02:11:00,
2013-02-11 18:21:00,45.0,44.0,-100.00,SSW,193,0.0,3.0,96,0.00,,,0.10,12.000000,,2013-02-12 02:21:00,
2013-02-11 18:31:00,45.0,44.0,-100.00,SSW,193,0.0,3.0,96,0.00,,,0.10,12.000000,,2013-02-12 02:31:00,
2013-02-11 18:52:00,44.0,43.0,-100.00,SSW,212,0.0,1.0,96,0.01,,,0.11,1.000000,,2013-02-12 02:52:00,
2013-02-11 19:02:00,44.0,43.0,-100.00,SSW,212,0.0,1.0,96,0.01,,,0.11,1.000000,,2013-02-12 03:02:00,
2013-02-11 19:11:00,44.0,43.0,-100.00,SSW,212,0.0,1.0,96,0.01,,,0.11,1.000000,,2013-02-12 03:11:00,
2013-02-11 19:21:00,44.0,43.0,-100.00,SSW,212,0.0,1.0,96,0.01,,,0.11,1.000000,,2013-02-12 03:21:00,
2013-02-11 19:31:00,44.0,43.0,-100.00,SSW,212,0.0,1.0,96,0.01,,,0.11,1.000000,,2013-02-12 03:31:00,
2013-02-11 19:52:00,44.0,43.0,-100.00,SSE,153,0.0,3.0,97,0.00,,,0.11,0.000000,,2013-02-12 03:52:00,
2013-02-11 20:01:00,44.0,43.0,-100.00,SSE,153,0.0,3.0,97,0.00,,,0.11,0.000000,,2013-02-12 04:01:00,
2013-02-11 20:11:00,44.0,43.0,-100.00,SSE,153,0.0,3.0,97,0.00,,,0.11,0.000000,,2013-02-12 04:11:00,
2013-02-11 20:21:00,44.0,43.0,-100.00,SSE,153,0.0,3.0,97,0.00,,,0.11,0.000000,,2013-02-12 04:21:00,
2013-02-11 20:31:00,44.0,43.0,-100.00,SSE,153,0.0,3.0,97,0.00,,,0.11,0.000000,,2013-02-12 04:31:00,
2013-02-11 20:52:00,44.0,43.0,-100.00,WSW,257,0.0,1.0,97,0.00,,,0.11,0.000000,,2013-02-12 04:52:00,
2013-02-11 21:01:00,44.0,43.0,-100.00,WSW,257,0.0,1.0,97,0.00,,,0.11,0.000000,,2013-02-12 05:01:00,
2013-02-11 21:11:00,44.0,43.0,-100.00,WSW,257,0.0,1.0,97,0.00,,,0.11,0.000000,,2013-02-12 05:11:00,
2013-02-11 21:21:00,44.0,43.0,-100.00,WSW,257,0.0,1.0,97,0.00,,,0.11,0.000000,,2013-02-12 05:21:00,
2013-02-11 21:31:00,44.0,43.0,-100.00,WSW,257,0.0,1.0,97,0.00,,,0.11,0.000000,,2013-02-12 05:31:00,
2013-02-11 21:52:00,43.0,42.0,-100.00,West,272,1.0,4.0,97,0.00,,,-99.99,0.000000,,2013-02-12 05:52:00,
2013-02-11 22:01:00,43.0,42.0,-100.00,West,272,1.0,4.0,97,0.00,,,-99.99,0.000000,,2013-02-12 06:01:00,
2013-02-11 22:12:00,43.0,42.0,-100.00,West,272,1.0,4.0,97,0.00,,,-99.99,0.000000,,2013-02-12 06:12:00,
2013-02-11 22:21:00,43.0,42.0,-100.00,West,272,1.0,4.0,97,0.00,,,-99.99,0.000000,,2013-02-12 06:21:00,
2013-02-11 22:31:00,43.0,42.0,-100.00,West,272,1.0,4.0,97,0.00,,,-99.99,0.000000,,2013-02-12 06:31:00,
2013-02-11 22:52:00,43.0,42.0,-100.00,SSE,163,0.0,4.0,97,0.01,,,0.12,0.000000,,2013-02-12 06:52:00,
2013-02-11 23:01:00,43.0,42.0,-100.00,SSE,163,0.0,4.0,97,0.01,,,0.12,0.000000,,2013-02-12 07:01:00,
2013-02-11 23:11:00,43.0,42.0,-100.00,SSE,163,0.0,4.0,97,0.01,,,0.12,0.000000,,2013-02-12 07:11:00,
2013-02-11 23:21:00,43.0,42.0,-100.00,SSE,163,0.0,4.0,97,0.01,,,0.12,0.000000,,2013-02-12 07:21:00,
2013-02-11 23:31:00,43.0,42.0,-100.00,SSE,163,0.0,4.0,97,0.01,,,0.12,0.000000,,2013-02-12 07:31:00,
2013-02-11 23:52:00,43.0,42.0,-100.00,ESE,115,0.0,0.0,97,0.00,,,0.11,0.000000,,2013-02-12 07:52:00,